Tracking 18852 objects as of 24-Nov-2017
HD Live streaming from Space Station
objects crossing your sky now

FENGYUN 1C DEB

Track FENGYUN 1C DEB now!
10-day predictions


NORAD ID: 30104
Int'l Code: 1999-025RH
Perigee: 776.6 km
Apogee: 894.1 km
Inclination: 98.6 °
Period: 101.5 minutes
Semi major axis: 7206 km
RCS: 0.0504 m2 (small)
Launch date: May 10, 1999
Source: People's Republic of China (PRC)
Launch site: Taiyaun Space Center, China (TSC)

Note: This is SATELLITE DEBRIS
aabbcc
Your satellite tracking list
Your tracking list is empty




NASA's NSSDC Master Catalog

Two Line Element Set (TLE):
1 30104U 99025RH  17327.29149014  .00000370  00000-0  19065-3 0  9997
2 30104  98.6260 231.3898 0081538   7.2052 111.5430 14.19158848561327
Source of the keplerian elements: AFSPC